DELTA 1 DEB, 10708

Orbit data source: Space-Track

DELTA 1 DEB, 10708 is space debris in SSO originally from a launch on Thu, 29 Jul 1976 UTC launched from the Air Force Western Test Range (AFWTR). Debris objects in space refer to the collection of defunct objects orbiting the Earth. Examples of debris include non-operational satellites, rocket bodies, and fragments generated from explosions, collisions, or faulty payload assembly.

Loading next visibility...
Identifier
10708, 1976-077AD
Orbit
SSO
Last TLE update
10 hours ago
Origin
Manufacturer
Unknown
Mission
Spacecraft
Bus & Motor
Unknown
Mass
Unknown
Launch date (UTC)
1976-07-29 (49 years ago)
Launch vehicle
Unknown
Launch site
Air Force Western Test Range (AFWTR)
Object type
Payload
Rocket body
Debris
Shape & HBR
Unknown
Radar Cross Section
Small (<0.1 m²)

Expand to show TLE details & history

TLE from 10 hours ago
0 DELTA 1 DEB
1 10708U 76077AD  25181.93925199  .00000181  00000-0  11760-2 0  9994
2 10708 101.2122 196.3554 0163124 346.4247  73.8802 12.63132691243491
Epoch: 2025-06-30T22:32Z
TLE epoch observation values (Epoch: 2025-06-30T22:32:31.371Z)
Latitude
60.20124°
Longitude
-81.16382°
Altitude
1,386.771 km
Speed
7.187 km/s
True Right ascension
11h 44m 50s
True Declination
60° 03' 53"
Sunlit
Object was in daylight at epoch
Visualization orbit readout
Latitude
-26.05979°
Longitude
113.85941°
Altitude
1,514.753 km
Speed
7.063 km/s
Apparent Right ascension
03h 31m 21s
Apparent Declination
-48° 31' 23"
Sunlit
Object is in daylight
Visualization observer readout
Local Sidereal Time
20:27:38
Azimuth
125.721° SE
Elevation
-38.328°
Doppler factor
1
Orbital elements
Apogee altitude
1,534.541 km
Perigee altitude
1,280.535 km
Semi-major axis
7,785.675 km
Eccentricity
0.01631
Inclination
101.2122°
RAAN
196.3554°
Arg. of periapsis
346.4247°
True anomaly
Unknown
Mean anomaly
73.8802°
Eccentric anomaly
Unknown
Mean motion
3.15936 °/min
Orbital period
113.95 mins
BSTAR
0.001176
Loading maneuver chart data...
Loading SW <> Apogee altitude chart data...
Loading historical data...
Loading historical data...
Loading historical data...
Loading historical data...
Loading historical data...
Loading historical data...
Loading historical data...

DELTA 1 DEB Visibility forecast

Observer location: undefined°, undefined°

Span
Click to sort rows by Start time (UTC) header in descending order
Start Az.
Max El. time (UTC)
Max El. Az.
Max El.
End time (UTC)
End Az.
11 mins2025-07-01 12:11:27.351Z50.907° ENE2025-07-01 12:16:27.351Z88.285° E18.43°2025-07-01 12:22:27.351Z133.069° SE
15 mins2025-07-01 14:02:27.351Z15.985° NNE2025-07-01 14:09:27.351Z332.581° NNW44.945°2025-07-01 14:17:27.351Z200.638° SSW
9 mins2025-07-01 15:56:27.351Z340.482° N2025-07-01 16:00:27.351Z307.25° NW20.099°2025-07-01 16:05:27.351Z268.173° W
9 mins2025-07-01 23:07:27.351Z90.595° ESE2025-07-01 23:11:27.351Z52.285° ENE21.471°2025-07-01 23:16:27.351Z10.09° NNE
13 mins2025-07-02 00:56:27.351Z169.226° S2025-07-02 01:02:27.351Z258.549° W44.318°2025-07-02 01:09:27.351Z340.02° N
4 mins2025-07-02 02:54:27.351Z262.487° W2025-07-02 02:55:27.351Z270.556° WNW12.014°2025-07-02 02:58:27.351Z293.921° NW
|